DHK528 LIMC-VHHH

Flight info

Callsign DHK528
Flight time N/A
Altitude 31000
Route OSKOR DCT NEVNI DCT NOBMI DCT ELTAR DCT IDREK DCT LAPAB DCT PEVAL DCT OKSIG DCT VELIP DCT FLR DCT LUGEB DCT UDROS UM859 KARDE UN644 ROLIN DCT FOQUS DCT LAGAS DCT DISKA/N0490F330 M737 VERCA M747 SUBUT T916 BALUN/K0902F330 T916 KUNAS N193 SR L163 TISIB L141 KAMUD/K0895S1010 W186 SADAN/K0893S1070 Y1 OMBON W245 OVRAL B330 KWE W181 DUDIT A599 POU R473 SIERA
Aircraft B77L/H-SDE1E2E3FGHIJ2J3J4J5M1RWXY/LB1D1

Departure

Time 2026-05-06 09:27
Airport Milan Malpensa International Airport (LIMC)

Arrival

Time N/A
Airport Hong Kong International Airport (VHHH)
Time Latitude Longitude Altitude Speed Heading
2026-05-06 08:40 45.60773 8.72094 699 ft 0 kts 259°
2026-05-06 09:12 45.60774 8.72095 699 ft 1 kts 259°
2026-05-06 09:12 45.60777 8.72115 698 ft 2 kts 259°
2026-05-06 09:13 45.60780 8.72137 698 ft 2 kts 259°
2026-05-06 09:13 45.60782 8.72158 697 ft 2 kts 259°
2026-05-06 09:13 45.60785 8.72177 697 ft 0 kts 259°
2026-05-06 09:13 45.60787 8.72192 697 ft 2 kts 249°
2026-05-06 09:14 45.60795 8.72210 697 ft 2 kts 224°
2026-05-06 09:14 45.60807 8.72223 697 ft 2 kts 204°
2026-05-06 09:14 45.60821 8.72229 697 ft 2 kts 184°
2026-05-06 09:14 45.60830 8.72228 697 ft 0 kts 171°
2026-05-06 09:15 45.60833 8.72228 697 ft 0 kts 171°
2026-05-06 09:17 45.60820 8.72231 697 ft 4 kts 171°
2026-05-06 09:17 45.60775 8.72241 697 ft 8 kts 171°
2026-05-06 09:18 45.60726 8.72253 697 ft 6 kts 171°
2026-05-06 09:18 45.60682 8.72262 697 ft 5 kts 172°
2026-05-06 09:18 45.60650 8.72273 697 ft 3 kts 153°
2026-05-06 09:18 45.60628 8.72299 697 ft 4 kts 124°
2026-05-06 09:19 45.60624 8.72346 697 ft 6 kts 90°
2026-05-06 09:19 45.60625 8.72418 697 ft 8 kts 88°
2026-05-06 09:19 45.60628 8.72504 697 ft 9 kts 86°
2026-05-06 09:19 45.60628 8.72606 697 ft 11 kts 96°
2026-05-06 09:20 45.60620 8.72720 698 ft 11 kts 96°
2026-05-06 09:20 45.60613 8.72827 698 ft 10 kts 95°
2026-05-06 09:20 45.60606 8.72932 698 ft 11 kts 96°
2026-05-06 09:20 45.60597 8.73052 697 ft 12 kts 96°
2026-05-06 09:21 45.60589 8.73167 697 ft 10 kts 91°
2026-05-06 09:21 45.60618 8.73259 696 ft 11 kts 38°
2026-05-06 09:21 45.60697 8.73311 694 ft 14 kts 22°
2026-05-06 09:21 45.60796 8.73369 691 ft 15 kts 22°
2026-05-06 09:22 45.60892 8.73411 691 ft 13 kts 359°
2026-05-06 09:22 45.60974 8.73390 691 ft 11 kts 349°
2026-05-06 09:22 45.61057 8.73368 692 ft 12 kts 349°
2026-05-06 09:22 45.61148 8.73343 694 ft 13 kts 349°
2026-05-06 09:23 45.61242 8.73317 695 ft 12 kts 349°
2026-05-06 09:23 45.61314 8.73298 697 ft 8 kts 349°
2026-05-06 09:23 45.61370 8.73282 699 ft 8 kts 349°
2026-05-06 09:23 45.61438 8.73263 701 ft 11 kts 349°
2026-05-06 09:24 45.61508 8.73244 702 ft 8 kts 349°
2026-05-06 09:24 45.61569 8.73227 704 ft 9 kts 356°
2026-05-06 09:24 45.61615 8.73276 704 ft 8 kts 70°
2026-05-06 09:24 45.61628 8.73354 703 ft 7 kts 78°
2026-05-06 09:25 45.61629 8.73420 703 ft 6 kts 103°
2026-05-06 09:25 45.61605 8.73489 703 ft 8 kts 120°
2026-05-06 09:25 45.61583 8.73576 702 ft 8 kts 92°
2026-05-06 09:25 45.61590 8.73654 702 ft 7 kts 81°
2026-05-06 09:26 45.61599 8.73716 703 ft 3 kts 65°
2026-05-06 09:26 45.61610 8.73731 704 ft 1 kts 25°
2026-05-06 09:26 45.61630 8.73732 704 ft 6 kts 355°
2026-05-06 09:26 45.61821 8.73685 707 ft 62 kts 348°
2026-05-06 09:27 45.62501 8.73497 720 ft 135 kts 349°
2026-05-06 09:27 45.63647 8.73182 747 ft 200 kts 349°
2026-05-06 09:27 45.65135 8.72757 1276 ft 221 kts 351°
2026-05-06 09:27 45.66586 8.72563 2414 ft 208 kts
2026-05-06 09:28 45.68052 8.72637 2802 ft 221 kts
2026-05-06 09:28 45.69666 8.72652 3211 ft 233 kts
2026-05-06 09:28 45.71289 8.72604 3807 ft 236 kts
2026-05-06 09:28 45.72912 8.73058 4145 ft 246 kts 31°
2026-05-06 09:29 45.74180 8.74666 4624 ft 247 kts 62°
2026-05-06 09:29 45.74804 8.76945 4974 ft 250 kts 87°
2026-05-06 09:29 45.74664 8.79433 5515 ft 250 kts 105°
2026-05-06 09:29 45.74206 8.81774 6356 ft 243 kts 110°
2026-05-06 09:30 45.73668 8.84013 6998 ft 242 kts 118°
2026-05-06 09:30 45.72776 8.86078 7545 ft 243 kts 128°
2026-05-06 09:30 45.71788 8.88018 8152 ft 244 kts 129°
2026-05-06 09:30 45.70795 8.89963 8730 ft 245 kts 129°
2026-05-06 09:31 45.69798 8.91925 9311 ft 245 kts 130°
2026-05-06 09:31 45.68805 8.93881 9850 ft 247 kts 130°
2026-05-06 09:31 45.67792 8.95876 10344 ft 250 kts 130°
2026-05-06 09:31 45.66766 8.97895 10873 ft 252 kts 130°
2026-05-06 09:32 45.65722 8.99947 11314 ft 257 kts 130°
2026-05-06 09:32 45.64870 9.02207 11744 ft 268 kts 111°
2026-05-06 09:32 45.64580 9.04920 11983 ft 288 kts 96°
2026-05-06 09:32 45.64594 9.07883 12134 ft 307 kts 94°
2026-05-06 09:33 45.64634 9.11011 12374 ft 322 kts 94°
2026-05-06 09:33 45.64661 9.14257 12524 ft 339 kts 94°
2026-05-06 09:33 45.64682 9.17745 12736 ft 357 kts 93°
2026-05-06 09:33 45.64700 9.21351 12886 ft 376 kts 93°
2026-05-06 09:34 45.64717 9.25177 13041 ft 395 kts 93°
2026-05-06 09:34 45.64736 9.29167 13454 ft 406 kts 93°
2026-05-06 09:34 45.64754 9.33197 14178 ft 409 kts 93°
2026-05-06 09:34 45.64771 9.37216 14961 ft 410 kts 93°
2026-05-06 09:35 45.64785 9.41303 15620 ft 413 kts 93°
2026-05-06 09:35 45.64798 9.45407 16213 ft 419 kts 93°
2026-05-06 09:35 45.64808 9.49566 16774 ft 424 kts 94°
2026-05-06 09:35 45.64818 9.53797 17374 ft 428 kts 94°
2026-05-06 09:36 45.64826 9.58078 17992 ft 432 kts 93°
2026-05-06 09:36 45.64833 9.62324 18610 ft 435 kts 93°
2026-05-06 09:36 45.64845 9.66722 19109 ft 442 kts 94°
2026-05-06 09:36 45.64860 9.71139 19559 ft 448 kts 94°
2026-05-06 09:37 45.64874 9.75606 20063 ft 454 kts 94°
2026-05-06 09:37 45.64885 9.80109 20604 ft 457 kts 94°
2026-05-06 09:37 45.64895 9.84674 21076 ft 463 kts 94°
2026-05-06 09:37 45.64903 9.89235 21496 ft 469 kts 95°
2026-05-06 09:38 45.64909 9.93922 21928 ft 474 kts 95°
2026-05-06 09:38 45.64913 9.98665 22435 ft 478 kts 94°
2026-05-06 09:38 45.64915 10.03421 22871 ft 483 kts 94°
2026-05-06 09:38 45.64915 10.08195 23292 ft 488 kts 95°
2026-05-06 09:39 45.64913 10.13046 23692 ft 494 kts 94°
2026-05-06 09:39 45.64905 10.18000 24202 ft 496 kts 95°
2026-05-06 09:39 45.64895 10.22939 24680 ft 499 kts 95°
2026-05-06 09:39 45.64881 10.27964 25134 ft 503 kts 95°
2026-05-06 09:40 45.64866 10.32949 25507 ft 508 kts 95°
2026-05-06 09:40 45.64848 10.38062 25938 ft 512 kts 95°
2026-05-06 09:40 45.64811 10.48299 26874 ft 517 kts 95°
2026-05-06 09:41 45.64791 10.53462 27323 ft 520 kts 95°
2026-05-06 09:41 45.64768 10.58594 27706 ft 525 kts 95°
2026-05-06 09:41 45.64742 10.63812 28050 ft 530 kts 95°
2026-05-06 09:41 45.64708 10.69090 28448 ft 533 kts 96°
2026-05-06 09:42 45.64670 10.74360 28866 ft 536 kts 96°
2026-05-06 09:42 45.64626 10.79683 29337 ft 537 kts 97°
2026-05-06 09:42 45.64320 10.84992 29842 ft 532 kts 103°
2026-05-06 09:42 45.63837 10.90142 30438 ft 530 kts 104°
2026-05-06 09:43 45.63328 10.95366 30882 ft 532 kts 104°
2026-05-06 09:43 45.62814 11.00595 30918 ft 534 kts 104°
2026-05-06 09:43 45.61791 11.11003 30922 ft 528 kts 104°
2026-05-06 09:44 45.60759 11.21381 30921 ft 530 kts 104°
2026-05-06 09:44 45.59724 11.31712 30921 ft 528 kts 104°
2026-05-06 09:45 45.58673 11.42099 30922 ft 532 kts 103°
2026-05-06 09:45 45.57615 11.52479 30916 ft 528 kts 103°
2026-05-06 09:46 45.56548 11.62842 30916 ft 530 kts 103°
2026-05-06 09:46 45.55472 11.73207 30917 ft 529 kts 104°
2026-05-06 09:47 45.54389 11.83541 30926 ft 530 kts 104°
2026-05-06 09:47 45.53293 11.93910 30924 ft 531 kts 104°
2026-05-06 09:48 45.51810 12.04110 30926 ft 526 kts 109°
2026-05-06 09:48 45.50128 12.14233 30928 ft 527 kts 109°
2026-05-06 09:49 45.48432 12.24383 30928 ft 526 kts 109°
2026-05-06 09:49 45.46737 12.34473 30926 ft 527 kts 109°
2026-05-06 09:50 45.45022 12.44621 30929 ft 528 kts 109°
2026-05-06 09:50 45.43322 12.54639 30930 ft 526 kts 108°
2026-05-06 09:51 45.41594 12.64748 30926 ft 527 kts 108°
2026-05-06 09:51 45.39861 12.74843 30911 ft 524 kts 109°
2026-05-06 09:52 45.38119 12.84919 30913 ft 526 kts 109°
2026-05-06 09:52 45.36375 12.94955 30913 ft 527 kts 109°
2026-05-06 09:53 45.34611 13.05059 30913 ft 525 kts 109°
2026-05-06 09:53 45.32849 13.15081 30923 ft 526 kts 109°
2026-05-06 09:54 45.31079 13.25096 30921 ft 526 kts 109°
2026-05-06 09:54 45.29818 13.35334 30933 ft 531 kts 102°
2026-05-06 09:55 45.28748 13.45672 30935 ft 530 kts 102°
2026-05-06 09:55 45.27641 13.55979 30939 ft 529 kts 103°
2026-05-06 09:56 45.26504 13.66303 30943 ft 530 kts 103°
2026-05-06 09:56 45.25353 13.76578 30942 ft 529 kts 103°
2026-05-06 09:57 45.24185 13.86869 30946 ft 530 kts 103°
2026-05-06 09:57 45.23013 13.97085 30950 ft 531 kts 103°
2026-05-06 09:58 45.21814 14.07427 30948 ft 530 kts 103°
2026-05-06 09:58 45.20620 14.17646 30947 ft 529 kts 103°
2026-05-06 09:59 45.19410 14.27903 30956 ft 531 kts 103°
2026-05-06 09:59 45.18192 14.38152 30970 ft 529 kts 103°
2026-05-06 10:00 45.16959 14.48435 30967 ft 529 kts 103°
2026-05-06 10:00 45.15722 14.58678 30969 ft 529 kts 103°
2026-05-06 10:01 45.14474 14.68928 30947 ft 529 kts 103°
2026-05-06 10:01 45.13229 14.79069 30955 ft 528 kts 103°
2026-05-06 10:02 45.11971 14.89245 30970 ft 527 kts 104°
2026-05-06 10:02 45.10699 14.99457 30977 ft 528 kts 103°
2026-05-06 10:03 45.09421 15.09628 30967 ft 528 kts 103°
2026-05-06 10:03 45.08136 15.19797 30954 ft 526 kts 103°
2026-05-06 10:04 45.06838 15.29977 30971 ft 527 kts 103°
2026-05-06 10:04 45.05538 15.40105 30964 ft 526 kts 103°
2026-05-06 10:05 45.04225 15.50259 30963 ft 526 kts 103°
2026-05-06 10:05 45.02904 15.60398 30965 ft 526 kts 103°
2026-05-06 10:06 45.01580 15.70491 30955 ft 525 kts 104°
2026-05-06 10:06 45.00248 15.80568 30953 ft 525 kts 103°
2026-05-06 10:07 44.98899 15.90703 30954 ft 525 kts 103°
2026-05-06 10:07 44.97546 16.00794 30959 ft 526 kts 103°
2026-05-06 10:08 44.96183 16.10895 30956 ft 525 kts 103°
2026-05-06 10:08 44.94821 16.20919 30956 ft 524 kts 103°
2026-05-06 10:09 44.93437 16.31029 30960 ft 523 kts 103°
2026-05-06 10:09 44.92061 16.41011 30961 ft 522 kts 103°
2026-05-06 10:10 44.90677 16.50990 30956 ft 522 kts 103°
2026-05-06 10:10 44.89277 16.61011 30964 ft 521 kts 103°
2026-05-06 10:11 44.87869 16.71019 30953 ft 521 kts 103°
2026-05-06 10:11 44.86454 16.81015 30957 ft 522 kts 103°
2026-05-06 10:12 44.85030 16.91012 30970 ft 520 kts 103°
2026-05-06 10:12 44.83737 17.00982 30973 ft 522 kts 97°
2026-05-06 10:13 44.83650 17.11223 30972 ft 524 kts 90°
2026-05-06 10:13 44.83734 17.21405 30964 ft 522 kts 90°
2026-05-06 10:14 44.83791 17.31543 30965 ft 523 kts 90°
2026-05-06 10:14 44.83827 17.41781 30959 ft 522 kts 90°
2026-05-06 10:15 44.83848 17.51952 30961 ft 523 kts 90°
2026-05-06 10:15 44.83857 17.62166 30964 ft 522 kts 90°
2026-05-06 10:16 44.83854 17.72385 30955 ft 523 kts 91°
2026-05-06 10:16 44.83841 17.82585 30961 ft 522 kts 91°